ROMMA est une association bénévole à but non lucratif. Votre soutien est indispensable : ADHERER à ROMMA ou FAIRE un DON

Tourrette-Levens - (06, Alpes-Maritimes)

Côte-d'Azur (416 m)   Longitude: 07° 16' 12" E   Latitude: 43° 47' 24" N Station partenaire n°152
 

Détail journalier du     <<     >>

Température Precipitation Humidité Pression Vent Dir Rafale Dir. rafale Ensol.
Heure (°C) (mm) (%) (hPa) (km/h) (km/h) (min)
01:00 9.508510101ONO8S0
02:00 11.007510101OSO6SO0
03:00 11.407110103OSO13NNO0
04:00 11.506810103NO10NNO0
05:00 10.8070101005ONO0
06:00 11.20701010000
07:00 11.307310112ONO8ONO0
08:00 13.9064101106S0
09:00 15.406810121SE10ESE41
10:00 17.306510123SE13SSE60
11:00 17.406810138SSO19OSO60
12:00 18.606410136S19SSE59
13:00 18.705910137SE23SSE45
14:00 19.305910136ESE19ESE60
15:00 18.906110147ESE23SE60
16:00 18.405910147ESE21ENE58
17:00 18.605610145ESE16ESE60
18:00 15.807310144ESE16O17
19:00 14.607910154SO15O0
20:00 13.308510151NE8NE0
21:00 12.209010152NO6ENE0
22:00 11.40921016000
23:00 11.00931017000
minuit 10.70941016000

Graphique du 10-05-2019

 

Serveur OMMA